Other Public Products
Issued by NWS Charleston, SC

Current Version | Previous Version | Graphics & Text | Print | Product List | Glossary On
Versions: 1 2 3 4 5 6 7 8 9 10 11 12 13 14 15 16 17 18 19 20 21 22 23 24 25 26 27 28 29 30 31 32 33 34 35 36 37 38 39 40 41 42 43 44 45 46 47 48 49 50
069
FPUS82 KCHS 210112
OPUCHS

TEST...KCHS/KSAV Gateway Observations...TEST
National Weather Service Charleston SC
900 PM EDT FRI APR 20 2018

NOTE: "fair" indicates few or no clouds below 12,000 feet with no
significant weather and/or obstructions to visibility.

SCZ050-WAZ558-NCZ071-TXZ119-213-PAZ071-DCZ001-FLZ074-172-MI076-
NYZ176-178-MAZ016-IL014-TNZ027-NJZ106-GAZ044-MD014-210200-

...Gateway Observations for Charleston International...

CITY           SKY/WX    TMP DP  RH WIND       PRES   REMARKS
Chas Airport   FAIR      56  41  57 SE6       30.30R
Seattle        CLOUDY    58  34  40 W6        30.17S
Charlotte      FAIR      63  24  22 VRB3      30.30R
Dallas DFW     PTCLDY    64  42  44 SE14      30.04F
Dallas Love    PTCLDY    65  42  43 SE14      30.07F
Philladelphia  FAIR      47  23  38 N14G26    30.35R
Wash National  FAIR      56  25  30 NW13      30.34R
Baltimore      FAIR      52  25  35 NW3       30.32R
Miami          FAIR      77  67  71 E9        30.10R
Detroit        FAIR      48  21  34 E7        30.45R
Newark         FAIR      44  23  43 N18G28    30.34R
Laguardia      FAIR      44  24  45 NW16      30.33R
J F K          FAIR      43  23  45 NW15G25   30.34R
Boston Logan   FAIR      44  27  51 NW15G24   30.23R
Ft. Lauderdale FAIR      77  68  73 E12       30.09R
Chicago O`Hare MOCLDY    50  10  20 E8        30.42S
Chicago Midway MOCLDY    50  11  20 E7        30.43S
Houston Bush   MOCLDY    62  53  72 SE13      30.12S
Houston Hobby  CLOUDY    63  55  75 E12       30.11F
Nashville      PTCLDY    58  32  37 N9        30.30S
Atlanta        FAIR      63  29  27 SE6       30.27R

$$

GAZ044-118-TXZ119-213-NCZ071-DCZ001-MDZ014-506-PAZ021-071-NJZ106-
NYZ176-178-MAZ106-OHZ011-021-055-MIZ076-KYZ091-ILZ014-INZ047-
MNZ060-ONZ431-210200-

...Gateway Observations for Savannah International...

CITY           SKY/WX    TMP DP  RH WIND       PRES   REMARKS
Savannah Arpt  FAIR      59  47  64 E9        30.28R
Atlanta        FAIR      63  29  27 SE6       30.27R
Charlotte      FAIR      63  24  22 VRB3      30.30R
Dallas DFW     PTCLDY    64  42  44 SE14      30.04F
Houston Bush   MOCLDY    62  53  72 SE13      30.12S
Wash National  FAIR      56  25  30 NW13      30.34R
Wash Dulles    FAIR      53  26  35 NW10      30.34R
Baltimore      FAIR      52  25  35 NW3       30.32R
Philadelphia   FAIR      47  23  38 N14G26    30.35R
Newark         FAIR      44  23  43 N18G28    30.34R
Laguardia      FAIR      44  24  45 NW16      30.33R
J F K          FAIR      43  23  45 NW15G25   30.34R
Boston         FAIR      44  27  51 NW15G24   30.23R
Pittsburg      FAIR      46  19  34 N12       30.41R
Akron          FAIR      41  18  39 N8        30.44S
Cleveland      FAIR      45  20  36 NE5       30.48S
Cincinnati     MOCLDY    53  24  32 N5        30.40S
Columbus       FAIR      49  26  40 N7        30.42R
Detroit        FAIR      48  21  34 E7        30.45R
Chicago O`Hare MOCLDY    50  10  20 E8        30.42S
Minneapolis    CLOUDY    48  22  35 S5        30.43S
Indianapolis   FAIR      52  21  29 E7        30.40S
Toronto Canada CLEAR     39  23  52 N9        30.43R WCI  33

$$




USA.gov is the U.S. government's official web portal to all federal, state and local government web resources and services.